Starlink 5076

operational
NORAD ID: 55401 Int'l Des: 2023-014 Owner: SPXS Country: US Constellation: starlink
LEOCIRCULAR

About Starlink 5076

Description loading...

Live Position

Loading 3D Globe...

Upcoming Passes

Altitude History

Altitude vs Time

uPlot chart will show altitude changes over time

Two-Line Element Set

1 55401U 23014L 25345.54432226 .00002156 00000-0 18842-3 0 9992
2 55401 69.9997 286.6378 0002965 269.8118 90.2702 14.98332369158858
Epoch: Dec 11, 2025 • Age: 11 hours

Current Status

Altitude 575.4 km
Velocity 7.57 km/s
Sub-Earth Point -6.69°S, 161.65°W
Launch Date Jan 31, 2023
Age 2.8 years
Type internet

Technical Details

Classification Payload
Mass 305.00 kg
Dry Mass 290.00 kg
Total Mass 305.00 kg
Length 0.20 m
Diameter 2.80 m
Span 9.00 m
Shape Box + pan
Manufacturer SPXS
Bus Type Starlink
Phase Status In Orbit
Owner/State SPXS/US

Large Constellations

Loading constellations...